Weather History for Pecos, TX

Change the Weather History Date:

Tuesday, October 30, 2012

  Actual Average Record
Temperature  
Mean Temperature 58 °F -  
Max Temperature 80 °F 78 °F 93 °F (2010)
Min Temperature 38 °F 42 °F 26 °F (1993)
Degree Days  
Heating Degree Days 7    
Growing Degree Days 8 (Base 50)    
Moisture  
Dew Point 34 °F    
Average Humidity 54    
Maximum Humidity 83    
Minimum Humidity 17    
Precipitation  
Precipitation 0.00 in - - ()
Sea Level Pressure  
Sea Level Pressure 30.03 in    
Wind  
Wind Speed 4 mph (North)    
Max Wind Speed 9 mph    
Max Gust Speed -    
Visibility 10 miles    
Events      
Averages and records for this station are not official NWS values.
T = Trace of Precipitation, MM = Missing Value Source: NWS Daily Summary

Daily Weather History Graph

Daily Weather History Graph

Search for Another Location

Airport:

Trip Planner

Search our weather history database for the weather conditions in past years. The results will help you decide how hot, cold, wet, or windy it might be!

Date:

Astronomy

Oct. 30, 2012 Rise Set
Actual Time 8:08 AM CDT 7:06 PM CDT
Civil Twilight 7:43 AM CDT 7:31 PM CDT
Nautical Twilight 7:14 AM CDT 7:59 PM CDT
Astronomical Twilight 6:46 AM CDT 8:28 PM CDT
Moon 7:43 PM CDT (10/30) 8:52 AM CDT (10/30)
Length of Visible Light 11h 47m
Length of Day
10h 57m
Full, 99% of the Moon is Illuminated
Oct 30
Full
Nov 6
Last Quarter
Nov 13
New
Nov 20
First Quarter
Nov 28
Full

Hourly Weather History & Observations

Time (CDT) Temp. Windchill Dew Point Humidity Pressure Visibility Wind Dir Wind Speed Gust Speed Precip Events Conditions
12:15 AM 50.2 °F - 38.3 °F 64% 30.05 in 10.0 mi ENE 3.5 mph - N/A   Clear
12:35 AM 49.5 °F - 37.4 °F 63% 30.05 in 10.0 mi Calm Calm - N/A   Clear
12:55 AM 48.6 °F - 37.2 °F 65% 30.04 in 10.0 mi East 3.5 mph - N/A   Clear
1:15 AM 48.0 °F - 37.2 °F 66% 30.04 in 10.0 mi Calm Calm - N/A   Clear
1:35 AM 47.5 °F - 36.5 °F 66% 30.04 in 10.0 mi Calm Calm - N/A   Clear
2:35 AM 42.1 °F 38.4 °F 36.1 °F 79% 30.04 in 10.0 mi NW 5.8 mph - N/A   Clear
2:55 AM 42.3 °F 39.4 °F 35.6 °F 77% 30.03 in 10.0 mi WNW 4.6 mph - N/A   Clear
3:15 AM 42.1 °F 39.2 °F 34.7 °F 75% 30.03 in 10.0 mi WNW 4.6 mph - N/A   Clear
3:55 AM 42.1 °F 40.2 °F 35.1 °F 76% 30.03 in 10.0 mi NNW 3.5 mph - N/A   Clear
4:15 AM 41.7 °F 38.8 °F 34.7 °F 76% 30.03 in 10.0 mi NNW 4.6 mph - N/A   Clear
4:35 AM 41.4 °F 39.4 °F 34.3 °F 76% 30.03 in 10.0 mi NW 3.5 mph - N/A   Clear
4:55 AM 39.9 °F 37.8 °F 34.2 °F 80% 30.03 in 10.0 mi WNW 3.5 mph - N/A   Clear
5:15 AM 39.7 °F 37.6 °F 33.3 °F 78% 30.03 in 10.0 mi WNW 3.5 mph - N/A   Clear
5:35 AM 38.7 °F 34.3 °F 33.1 °F 80% 30.03 in 10.0 mi WNW 5.8 mph - N/A   Clear
5:55 AM 40.3 °F 36.3 °F 34.2 °F 79% 30.03 in 10.0 mi NW 5.8 mph - N/A   Clear
6:15 AM 39.6 °F 36.3 °F 34.0 °F 80% 30.03 in 10.0 mi NW 4.6 mph - N/A   Clear
6:35 AM 39.6 °F 36.3 °F 34.0 °F 80% 30.04 in 10.0 mi NW 4.6 mph - N/A   Clear
7:35 AM 38.1 °F 32.9 °F 33.4 °F 83% 30.05 in 10.0 mi NW 6.9 mph - N/A   Clear
8:35 AM 39.2 °F 35.0 °F 33.8 °F 81% 30.06 in 10.0 mi NW 5.8 mph - N/A   Clear
8:55 AM 42.1 °F 38.4 °F 35.8 °F 78% 30.07 in 10.0 mi NW 5.8 mph - N/A   Clear
9:15 AM 45.3 °F - 36.3 °F 71% 30.07 in 10.0 mi Calm Calm - N/A   Clear
9:35 AM 47.3 °F - 36.7 °F 67% 30.09 in 10.0 mi Calm Calm - N/A   Clear
10:55 AM 54.3 °F - 37.4 °F 53% 30.10 in 10.0 mi NNE 4.6 mph - N/A   Clear
11:35 AM 58.5 °F - 37.9 °F 46% 30.09 in 10.0 mi Calm Calm - N/A   Clear
11:55 AM 61.2 °F - 38.1 °F 42% 30.09 in 10.0 mi North 3.5 mph - N/A   Clear
12:15 PM 63.7 °F - 37.6 °F 38% 30.09 in 10.0 mi NNE 3.5 mph - N/A   Clear
12:55 PM 70.0 °F - 36.7 °F 30% 30.07 in 10.0 mi NE 5.8 mph - N/A   Clear
1:35 PM 73.6 °F - 32.0 °F 22% 30.05 in 10.0 mi Calm Calm - N/A   Clear
2:15 PM 76.6 °F - 31.8 °F 19% 30.03 in 10.0 mi NE 5.8 mph - N/A   Clear
2:35 PM 77.2 °F - 30.7 °F 18% 30.02 in 10.0 mi NNE 3.5 mph - N/A   Clear
2:55 PM 78.1 °F - 29.8 °F 17% 30.00 in 10.0 mi NNE 6.9 mph - N/A   Clear
6:55 PM 74.8 °F - 35.2 °F 24% 29.98 in 10.0 mi East 4.6 mph - N/A   Clear
7:15 PM 70.5 °F - 35.6 °F 28% 29.98 in 10.0 mi ESE 5.8 mph - N/A   Clear
7:35 PM 67.3 °F - 34.2 °F 29% 29.98 in 10.0 mi ESE 5.8 mph - N/A   Clear
7:55 PM 64.8 °F - 33.3 °F 31% 29.99 in 10.0 mi SE 6.9 mph - N/A   Clear
8:15 PM 64.0 °F - 32.4 °F 31% 29.99 in 10.0 mi SE 6.9 mph - N/A   Clear
8:35 PM 62.6 °F - 32.4 °F 32% 29.99 in 10.0 mi SE 5.8 mph - N/A   Clear
8:55 PM 61.0 °F - 32.0 °F 34% 29.99 in 10.0 mi SSE 8.1 mph - N/A   Clear
9:15 PM 59.5 °F - 32.0 °F 35% 30.00 in 10.0 mi SSE 9.2 mph - N/A   Clear
9:35 PM 58.3 °F - 32.0 °F 37% 30.00 in 10.0 mi Calm Calm - N/A   Clear
9:55 PM 56.3 °F - 32.4 °F 40% 30.00 in 10.0 mi ESE 3.5 mph - N/A   Clear
10:15 PM 55.0 °F - 32.9 °F 43% 30.02 in 10.0 mi SSE 3.5 mph - N/A   Clear
10:35 PM 54.3 °F - 32.5 °F 44% 30.02 in 10.0 mi Calm Calm - N/A   Clear
10:55 PM 54.0 °F - 31.8 °F 43% 30.03 in 10.0 mi SSW 6.9 mph - N/A   Clear
11:15 PM 53.1 °F - 32.2 °F 45% 30.03 in 10.0 mi SSW 8.1 mph - N/A   Clear
11:35 PM 53.2 °F - 32.4 °F 45% 30.02 in 10.0 mi SSW 3.5 mph - N/A   Clear
11:55 PM 50.5 °F - 32.9 °F 51% 30.03 in 10.0 mi Calm Calm - N/A   Clear